When you browse on this site, cookies collect data to enhance your experience and personalize the content and advertising you see.
Visit our Privacy Policy to learn more. By continuing to use the site, you agree to this use of cookies and data.

Hourly Weather Hajduboszormeny

Today, 22 September, Tuesday

Time Temperature Precipitation Wind Pressure Humidity
00:00 +16°C° 0 mm 1 mps 752 mmHg 56%
01:00 +16°C° 0 mm 2 mps 752 mmHg 59%
02:00 +15°C° 0 mm 2 mps 752 mmHg 61%
03:00 +15°C° 0 mm 2 mps 752 mmHg 62%
04:00 +14°C° 0 mm 1 mps 752 mmHg 64%
05:00 +15°C° 0 mm 1 mps 752 mmHg 62%
06:00 +16°C° 0 mm 1 mps 752 mmHg 61%
07:00 +18°C° 0 mm 1 mps 753 mmHg 57%
08:00 +20°C° 0 mm 1 mps 752 mmHg 51%
09:00 +22°C° 0 mm 1 mps 752 mmHg 46%
10:00 +24°C° 0 mm 1 mps 752 mmHg 40%
11:00 +26°C° 0 mm 1 mps 752 mmHg 37%
12:00 +27°C° 0 mm 1 mps 751 mmHg 34%
13:00 +28°C° 0 mm 2 mps 751 mmHg 31%
14:00 +28°C° 0 mm 1 mps 751 mmHg 31%
15:00 +28°C° 0 mm 1 mps 750 mmHg 32%
16:00 +28°C° 0 mm 1 mps 749 mmHg 33%
17:00 +26°C° 0 mm 1 mps 749 mmHg 37%
18:00 +23°C° 0 mm 1 mps 750 mmHg 42%
19:00 +21°C° 0 mm 1 mps 750 mmHg 46%
20:00 +20°C° 0 mm 2 mps 749 mmHg 48%
21:00 +19°C° 0 mm 2 mps 749 mmHg 49%
22:00 +19°C° 0 mm 2 mps 749 mmHg 51%
23:00 +18°C° 0 mm 2 mps 749 mmHg 52%

Tomorrow, 23 September, Wednesday

Time Temperature Precipitation Wind Pressure Humidity
00:00 +18°C° 0 mm 2 mps 749 mmHg 54%
01:00 +17°C° 0 mm 2 mps 749 mmHg 55%
02:00 +18°C° 0 mm 1 mps 749 mmHg 56%
03:00 +16°C° 0 mm 1 mps 748 mmHg 57%
04:00 +16°C° 0 mm 1 mps 748 mmHg 58%
05:00 +18°C° 0 mm 1 mps 748 mmHg 56%
06:00 +18°C° 0 mm 1 mps 748 mmHg 55%
07:00 +18°C° 0 mm 2 mps 748 mmHg 54%
08:00 +21°C° 0 mm 1 mps 748 mmHg 48%
09:00 +23°C° 0 mm 1 mps 748 mmHg 43%
10:00 +25°C° 0 mm 1 mps 748 mmHg 37%
11:00 +26°C° 0 mm 1 mps 747 mmHg 36%
12:00 +27°C° 0 mm 2 mps 747 mmHg 34%
13:00 +28°C° 0 mm 2 mps 747 mmHg 32%
14:00 +28°C° 0 mm 2 mps 746 mmHg 34%
15:00 +28°C° 0 mm 2 mps 746 mmHg 35%
16:00 +28°C° 0 mm 2 mps 745 mmHg 36%
17:00 +26°C° 0 mm 2 mps 745 mmHg 42%
18:00 +24°C° 0 mm 3 mps 745 mmHg 48%
19:00 +21°C° 0 mm 3 mps 746 mmHg 54%
20:00 +21°C° 0.1 mm 3 mps 746 mmHg 58%
21:00 +20°C° 0.1 mm 2 mps 746 mmHg 63%
22:00 +20°C° 0.1 mm 2 mps 746 mmHg 68%
23:00 +20°C° 0 mm 2 mps 746 mmHg 69%

Day after tomorrow, 24 September, Thursday

Time Temperature Precipitation Wind Pressure Humidity
00:00 +19°C° 0 mm 2 mps 746 mmHg 70%
01:00 +19°C° 0 mm 2 mps 746 mmHg 71%
02:00 +19°C° 0 mm 2 mps 746 mmHg 73%
03:00 +19°C° 0 mm 2 mps 746 mmHg 74%
04:00 +18°C° 0 mm 2 mps 746 mmHg 76%
05:00 +18°C° 0.1 mm 3 mps 746 mmHg 78%
06:00 +18°C° 0.1 mm 3 mps 746 mmHg 79%
07:00 +18°C° 0.1 mm 3 mps 746 mmHg 81%
08:00 +20°C° 0 mm 3 mps 746 mmHg 73%
09:00 +22°C° 0 mm 3 mps 747 mmHg 65%
10:00 +25°C° 0 mm 3 mps 747 mmHg 56%
11:00 +26°C° 0 mm 3 mps 747 mmHg 52%
12:00 +27°C° 0 mm 3 mps 747 mmHg 47%
13:00 +28°C° 0 mm 4 mps 746 mmHg 42%
14:00 +28°C° 0 mm 3 mps 746 mmHg 43%
15:00 +27°C° 0 mm 3 mps 746 mmHg 45%
16:00 +27°C° 0 mm 3 mps 746 mmHg 46%
17:00 +26°C° 0 mm 3 mps 746 mmHg 50%
18:00 +25°C° 0 mm 2 mps 746 mmHg 53%
19:00 +23°C° 0 mm 2 mps 746 mmHg 57%
20:00 +23°C° 0 mm 2 mps 746 mmHg 58%
21:00 +21°C° 0 mm 2 mps 746 mmHg 60%
22:00 +21°C° 0 mm 2 mps 746 mmHg 61%
23:00 +20°C° 0 mm 3 mps 746 mmHg 64%

25 September, Friday

Time Temperature Precipitation Wind Pressure Humidity
00:00 +19°C° 0 mm 3 mps 746 mmHg 67%
01:00 +19°C° 0 mm 3 mps 745 mmHg 70%
02:00 +19°C° 0 mm 3 mps 745 mmHg 69%
03:00 +19°C° 0 mm 3 mps 745 mmHg 69%
04:00 +18°C° 0 mm 3 mps 744 mmHg 69%
05:00 +19°C° 0 mm 3 mps 744 mmHg 68%
06:00 +19°C° 0 mm 3 mps 744 mmHg 66%
07:00 +20°C° 0 mm 3 mps 743 mmHg 65%
08:00 +22°C° 0 mm 4 mps 743 mmHg 58%
09:00 +25°C° 0 mm 4 mps 743 mmHg 52%
10:00 +26°C° 0 mm 5 mps 742 mmHg 45%
11:00 +27°C° 0 mm 5 mps 742 mmHg 41%
12:00 +28°C° 0 mm 6 mps 741 mmHg 37%
13:00 +29°C° 0 mm 7 mps 741 mmHg 33%
14:00 +29°C° 0 mm 6 mps 740 mmHg 35%
15:00 +28°C° 0 mm 5 mps 739 mmHg 37%
16:00 +27°C° 0 mm 4 mps 739 mmHg 38%
17:00 +26°C° 0 mm 3 mps 739 mmHg 44%
18:00 +24°C° 0 mm 2 mps 738 mmHg 50%
19:00 +21°C° 0 mm 2 mps 738 mmHg 56%
20:00 +23°C° 0.1 mm 2 mps 738 mmHg 54%
21:00 +23°C° 0.1 mm 2 mps 737 mmHg 53%
22:00 +22°C° 0.1 mm 3 mps 737 mmHg 52%
23:00 +21°C° 0.2 mm 3 mps 736 mmHg 59%

26 September, Saturday

Time Temperature Precipitation Wind Pressure Humidity
00:00 +20°C° 0.2 mm 3 mps 736 mmHg 67%
01:00 +19°C° 0.2 mm 3 mps 735 mmHg 75%
02:00 +19°C° 0.2 mm 3 mps 735 mmHg 76%
03:00 +19°C° 0.2 mm 3 mps 734 mmHg 78%
04:00 +19°C° 0.2 mm 3 mps 734 mmHg 80%
05:00 +19°C° 0.5 mm 4 mps 734 mmHg 80%
06:00 +19°C° 0.5 mm 4 mps 734 mmHg 80%
07:00 +19°C° 0.5 mm 5 mps 734 mmHg 81%
08:00 +17°C° 1.2 mm 5 mps 734 mmHg 83%
09:00 +17°C° 1.2 mm 5 mps 734 mmHg 86%
10:00 +17°C° 1.2 mm 5 mps 734 mmHg 88%
11:00 +18°C° 1.2 mm 3 mps 734 mmHg 87%
12:00 +17°C° 1.2 mm 2 mps 734 mmHg 87%
13:00 +18°C° 1.2 mm 1 mps 734 mmHg 86%
14:00 +18°C° 1.6 mm 1 mps 733 mmHg 88%
15:00 +16°C° 1.6 mm 2 mps 733 mmHg 89%
16:00 +16°C° 1.6 mm 2 mps 732 mmHg 91%
17:00 +15°C° 2.8 mm 4 mps 732 mmHg 91%
18:00 +14°C° 2.8 mm 5 mps 731 mmHg 92%
19:00 +14°C° 2.8 mm 7 mps 730 mmHg 92%
20:00 +12°C° 5.3 mm 8 mps 730 mmHg 92%
21:00 +11°C° 5.3 mm 9 mps 730 mmHg 92%
22:00 +9°C° 5.3 mm 10 mps 729 mmHg 92%
23:00 +10°C° 1.9 mm 9 mps 730 mmHg 92%

27 September, Sunday

Time Temperature Precipitation Wind Pressure Humidity
00:00 +8°C° 1.9 mm 9 mps 730 mmHg 91%
01:00 +9°C° 1.9 mm 8 mps 731 mmHg 90%
02:00 +9°C° 1.2 mm 8 mps 732 mmHg 90%
03:00 +9°C° 1.2 mm 8 mps 732 mmHg 91%
04:00 +7°C° 1.2 mm 9 mps 733 mmHg 91%
05:00 +7°C° 0.9 mm 9 mps 733 mmHg 90%
06:00 +7°C° 0.9 mm 9 mps 733 mmHg 89%
07:00 +7°C° 0.9 mm 9 mps 734 mmHg 88%
08:00 +7°C° 1.6 mm 10 mps 735 mmHg 88%
09:00 +7°C° 1.6 mm 11 mps 735 mmHg 88%
10:00 +8°C° 1.6 mm 11 mps 736 mmHg 88%
11:00 +7°C° 1.6 mm 11 mps 737 mmHg 87%
12:00 +7°C° 1.6 mm 11 mps 738 mmHg 87%
13:00 +7°C° 1.6 mm 10 mps 738 mmHg 86%
14:00 +7°C° 0.2 mm 9 mps 739 mmHg 85%
15:00 +9°C° 0.2 mm 7 mps 740 mmHg 83%
16:00 +9°C° 0.2 mm 5 mps 740 mmHg 82%
17:00 +9°C° 0.2 mm 5 mps 741 mmHg 83%
18:00 +9°C° 0.2 mm 5 mps 741 mmHg 84%
19:00 +9°C° 0.2 mm 5 mps 741 mmHg 86%
20:00 +10°C° 0.1 mm 4 mps 742 mmHg 85%
21:00 +8°C° 0.1 mm 4 mps 742 mmHg 85%
22:00 +8°C° 0.1 mm 4 mps 742 mmHg 85%
23:00 +8°C° 0 mm 4 mps 743 mmHg 85%
Show more